Showing default

OMNI-L1, 52157

Orbit data source: Space-Track

OMNI-L1, 52157 is a payload satellite owned by OmniSpace (US) in SSO that was launched on Fri, 01 Apr 2022 UTC via an FALCON 9 launch vehicle from the Air Force Eastern Test Range (AFETR). Payload-class satellites include a variety of spacecraft equipped with specific instruments for various scientific and technological missions. These include communications satellites like Starlink; space stations such as the ISS; scientific satellites like the Hubble; Earth observation satellites from companies like Planet Labs, Umbra, and HawkEye 360; GPS; miniature CubeSats for education and research; and military/defense satellites.

Loading next visibility...
Identifier
52157, 2022-033A
Orbit
SSO
Country
Flag of USUS
Related business
Manufacturer
NANAV/THALES
Mission
Operational Commercial Communications
Bus & Motor
CUBESAT 12U, Unknown motor
Mass
~20 kg wet, ~20 kg dry
Launch date (UTC)
2022-04-01 (4 years ago)
Launch vehicle
FALCON 9
Launch site
Air Force Eastern Test Range (AFETR)
Object type
Payload
Rocket body
Debris
Shape & HBR
Box + 2 Pan, 0.5 m
Radar Cross Section
0.126 m², Medium (>0.1 m² and < 1m²)

Expand to show TLE details & history
Last TLE update: 6 hours ago

TLE from 6 hours ago
0 OMNI-L1
1 52157U 22033A   25299.12378573  .00002979  00000-0  38733-3 0  9997
2 52157  97.8602  17.8122 0004657 340.6518  19.4518 14.81405873192780
Epoch: 2025-10-26T02:58Z
TLE epoch observation values (Epoch: 2025-10-26T02:58:15.087Z)
Latitude
0.00007°
Longitude
-61.49517°
Altitude
624.839 km
Speed
7.548 km/s
True Right ascension
01h 11m 14s
True Declination
0° 00' 00"
Sunlit
Object was in full shadow at epoch
Visualization orbit readout
Latitude
Unknown
Longitude
Unknown
Altitude
Unknown
Speed
Unknown
Apparent Right ascension
Unknown
Apparent Declination
Unknown
Sunlit
N/A
Visualization observer readout
Local Sidereal Time
04:16:23
Azimuth
Unknown
Elevation
Unknown
Doppler factor
Unknown
Orbital elements
Apogee altitude
625.187 km
Perigee altitude
618.667 km
Semi-major axis
7,000.064 km
Eccentricity
0.00047
Inclination
97.8602°
RAAN
17.8122°
Arg. of periapsis
340.6518°
True anomaly
19.46958°
Mean anomaly
19.4518°
Eccentric anomaly
19.46069°
Mean motion
3.70587 °/min
Orbital period
97.14 mins
BSTAR
0.00038733
Loading maneuver chart data...
Computing Atmospheric mass density...

Documentation

Showing up to 5 results
|